FW6591 Weather Reports


time (UTC)temp
C
wind
direction
speed
KPH
gust
KPH
rain 1hr
cm
rain 24hr
cm
rain mn
cm
humidity
%
barometer
mb
20260905024554 6 0 0.0 3.2 0.00 0.15 0.00 91 1030.7
20260905023122 6 0 0.0 0.0 0.00 0.15 0.00 91 1030.7
20260905021546 6 351 0.0 3.2 0.00 0.15 0.00 91 1030.8
20260905020059 6 348 3.2 4.8 0.00 0.15 0.00 91 1030.8
20260905014555 6 360 3.2 6.4 0.00 0.18 0.00 91 1030.8
20260905013049 5 351 1.6 4.8 0.00 0.18 0.00 91 1030.8
20260905011556 5 349 4.8 6.4 0.00 0.18 0.00 91 1030.9
20260905010047 6 351 0.0 3.2 0.00 0.18 0.00 90 1031.2
20260905004556 6 345 3.2 4.8 0.00 0.28 0.00 90 1031.5
20260905003050 6 0 0.0 3.2 0.00 0.28 0.00 90 1031.3
20260905001546 6 0 0.0 3.2 0.00 0.28 0.00 90 1031.5
20260905000113 6 346 1.6 4.8 0.00 0.28 0.00 90 1031.6
20260904234557 6 0 3.2 6.4 0.00 0.28 0.00 90 1031.9
20260904233050 6 0 0.0 3.2 0.00 0.28 0.00 89 1031.7
20260904231548 6 348 1.6 6.4 0.00 0.28 0.00 89 1032.0
20260904230058 6 239 0.0 3.2 0.00 0.28 0.00 89 1032.2
20260904224603 6 350 3.2 6.4 0.00 0.28 0.00 89 1032.6
20260904223054 6 0 0.0 12.9 0.00 0.28 0.00 89 1032.6
20260904221600 6 200 1.6 3.2 0.00 0.28 0.00 89 1032.5
20260904220112 6 202 0.0 3.2 0.00 0.28 0.00 89 1032.3
20260904214549 7 0 0.0 4.8 0.00 0.28 0.28 88 1032.1
20260904213051 7 191 0.0 1.6 0.00 0.28 0.28 88 1032.1
20260904211554 7 0 0.0 3.2 0.00 0.28 0.28 88 1032.5
20260904210059 7 221 0.0 6.4 0.00 0.28 0.28 88 1032.5
20260904204558 7 192 3.2 8.0 0.00 0.28 0.28 88 1032.4
20260904203050 7 177 4.8 11.3 0.00 0.28 0.28 88 1032.8
20260904201548 7 188 6.4 9.7 0.00 0.28 0.28 88 1033.0
20260904200045 7 214 4.8 8.0 0.00 0.28 0.28 87 1033.0
20260904194601 8 213 4.8 9.7 0.00 0.28 0.28 86 1033.0
20260904193049 8 195 8.0 12.9 0.00 0.28 0.28 85 1032.9
20260904191550 8 210 4.8 9.7 0.00 0.28 0.28 84 1033.1
20260904190059 8 168 6.4 12.9 0.00 0.28 0.28 83 1033.1
20260904184557 9 14 6.4 12.9 0.00 0.28 0.28 81 1033.2
20260904183049 10 195 8.0 17.7 0.00 0.28 0.28 80 1033.4
20260904181606 10 183 6.4 14.5 0.00 0.28 0.28 79 1033.5
20260904180116 10 180 8.0 16.1 0.00 0.28 0.28 78 1033.4
20260904174610 11 184 6.4 12.9 0.00 0.28 0.28 75 1033.2
20260904173051 11 249 6.4 12.9 0.00 0.28 0.28 73 1033.2
20260904171545 11 248 8.0 16.1 0.00 0.28 0.28 72 1033.1
20260904170059 11 215 8.0 12.9 0.00 0.28 0.28 73 1033.1
20260904164555 11 165 6.4 19.3 0.00 0.30 0.28 73 1033.0
20260904163101 11 167 4.8 20.9 0.00 0.30 0.28 73 1032.8
20260904161600 12 111 6.4 16.1 0.00 0.30 0.28 73 1032.8
20260904160057 12 232 8.0 17.7 0.00 0.30 0.28 72 1032.6
20260904154555 12 274 9.7 19.3 0.00 0.33 0.28 71 1032.5
20260904153051 12 184 8.0 19.3 0.00 0.33 0.28 71 1032.6
20260904151601 12 253 9.7 17.7 0.00 0.33 0.28 72 1032.5
20260904150053 12 245 9.7 20.9 0.00 0.33 0.28 72 1032.6
20260904144552 12 272 9.7 19.3 0.00 0.33 0.28 72 1032.5
20260904143104 12 226 6.4 19.3 0.00 0.33 0.28 71 1032.5
20260904141558 12 257 6.4 14.5 0.00 0.33 0.28 73 1032.3
20260904140055 12 276 4.8 20.9 0.00 0.33 0.28 72 1032.3
20260904134552 12 233 8.0 22.5 0.00 0.33 0.28 71 1032.1
20260904133111 12 241 9.7 20.9 0.00 0.33 0.28 71 1031.8
20260904131555 12 174 12.9 24.1 0.00 0.33 0.28 71 1031.7
20260904130055 12 236 6.4 17.7 0.00 0.33 0.28 72 1031.7
20260904124605 12 252 6.4 16.1 0.00 0.33 0.28 72 1031.9
20260904123109 13 291 6.4 14.5 0.00 0.33 0.28 70 1031.8
20260904121549 13 233 4.8 19.3 0.00 0.33 0.28 71 1031.9
20260904120048 13 207 8.0 20.9 0.00 0.33 0.28 72 1032.0
20260904114556 12 224 11.3 22.5 0.00 0.33 0.28 72 1032.1
20260904113101 13 209 8.0 17.7 0.00 0.33 0.28 69 1032.3
20260904111604 13 190 8.0 17.7 0.00 0.33 0.28 70 1032.5
20260904110109 12 277 8.0 25.7 0.00 0.33 0.28 71 1032.7
20260904104601 12 238 11.3 22.5 0.00 0.33 0.28 71 1033.0
20260904103053 12 251 9.7 19.3 0.00 0.33 0.28 72 1033.4
20260904101603 13 337 8.0 20.9 0.00 0.33 0.28 73 1033.2
20260904100101 12 261 12.9 24.1 0.00 0.33 0.28 76 1033.1
20260904094558 12 254 9.7 27.4 0.00 0.33 0.28 77 1033.6
20260904093111 12 223 11.3 33.8 0.00 0.33 0.28 78 1033.4
20260904091548 11 14 12.9 24.1 0.00 0.33 0.28 83 1033.5
20260904090047 11 13 12.9 25.7 0.00 0.33 0.28 84 1033.6
20260904084552 10 14 9.7 29.0 0.00 0.33 0.28 87 1033.4
20260904083052 10 14 11.3 24.1 0.00 0.33 0.28 91 1033.4
20260904081559 10 274 11.3 20.9 0.03 0.33 0.28 93 1033.3
20260904074555 10 241 9.7 29.0 0.05 0.33 0.25 93 1033.4
20260904073049 10 229 11.3 25.7 0.08 0.33 0.25 93 1033.2
20260904071550 10 13 11.3 19.3 0.05 0.30 0.23 93 1033.0
20260904070050 10 205 12.9 25.7 0.05 0.28 0.20 93 1032.8
20260904064553 10 189 6.4 17.7 0.03 0.28 0.18 93 1032.5
20260904063048 10 255 11.3 17.7 0.03 0.25 0.18 93 1032.3
20260904061552 10 257 8.0 20.9 0.03 0.25 0.18 93 1032.1
20260904060048 10 234 9.7 17.7 0.00 0.23 0.15 92 1031.7
20260904054557 10 265 9.7 20.9 0.00 0.23 0.15 92 1031.5
20260904053101 10 17 14.5 25.7 0.00 0.20 0.13 92 1031.2
20260904051558 10 14 9.7 19.3 0.00 0.20 0.13 92 1031.1
20260904050056 11 13 8.0 41.8 0.00 0.20 0.13 90 1030.7
20260904044550 11 15 11.3 20.9 0.00 0.20 0.13 91 1030.1
20260904043049 11 17 9.7 25.7 0.00 0.20 0.13 91 1030.0
20260904041559 11 15 8.0 19.3 0.00 0.20 0.13 91 1029.8
20260904040059 11 13 9.7 20.9 0.00 0.20 0.13 91 1029.4
20260904034557 11 15 11.3 30.6 0.00 0.20 0.13 92 1029.4
20260904033048 11 15 9.7 27.4 0.00 0.20 0.13 92 1029.2
20260904031549 11 13 8.0 30.6 0.00 0.20 0.13 92 1028.9
20260904030059 11 15 11.3 24.1 0.00 0.20 0.13 92 1028.5